Location: Jastrz?bniki
(50.3667°N, 20.3833°E)
Time: 11:42:15
(UTC+00:00)

Cosmos 1743 Rocket - Pass Details

Date: 05 August 2024
Orbit: 600 x 629 km, 82.6° (Epoch: 07 September)

Event Time Altitude Azimuth Distance (km) Brightness Sun altitude
Exits shadow 00:59:28 28° 241° (WSW) 1,172 4.5 -16.5°
Maximum altitude 01:01:07 39° 287° (WNW) 936 4.3 -16.4°
Drops below altitude 10° 01:05:15 10° 357° (N) 1,981 6.9 -16.0°
Sets 01:07:35 0° 5° (N) 2,886 8.1 -15.8°
